Wind_Speed
23 22 23 25 24 24 25 25 24 24 25 25 24 24 24 26 27 26 23 21 21 23 26 27 29 29 28 28 28 28 28 28 28 30 32 35 39 42 45 48 51 53 54 55
23 22 26 27 25 24 25 26 25 25 24 25 27 27 25 24 25 26 26 26 26 29 32 35 34 33 32 33 32 33 34 35 36 38 41 44 46 49 51 53 55 57 58 59
24 25 29 28 27 26 26 26 25 26 26 26 27 26 24 25 26 28 30 31 33 35 38 39 36 34 35 36 36 37 38 40 41 44 48 51 53 54 56 58 59 60 61 64
26 26 28 28 27 27 27 27 27 26 25 27 28 27 26 27 29 32 34 36 37 38 38 37 35 34 35 37 38 40 42 44 46 48 52 54 56 58 60 61 63 65 68 72
25 26 28 27 26 27 28 28 28 27 27 27 28 30 30 32 33 35 36 37 36 35 34 35 35 36 36 37 39 41 43 45 47 50 53 56 60 63 66 69 71 75 78 80
25 26 26 26 26 26 28 28 28 28 28 28 29 31 32 32 33 34 35 35 34 34 35 35 35 35 36 38 39 41 43 46 49 53 58 63 67 70 73 77 79 81 83 83
25 25 26 26 25 26 27 27 26 27 27 27 28 30 31 32 32 32 33 33 34 35 36 35 34 34 35 37 40 44 48 52 56 61 66 71 74 77 80 82 83 84 83 82
25 25 25 24 24 25 26 27 27 28 29 30 30 31 32 32 32 32 33 34 34 32 31 32 34 35 37 41 45 50 54 59 64 69 73 76 79 81 82 83 84 83 81 78
23 22 22 21 21 24 26 28 29 30 33 34 35 35 35 33 34 35 34 33 31 30 31 34 36 39 43 47 52 57 61 65 69 72 76 79 81 83 84 83 80 76 72 67
22 22 21 20 20 22 25 27 28 30 33 35 38 39 39 36 36 34 32 32 32 32 34 37 41 45 50 54 59 62 65 69 73 77 81 83 83 82 78 73 70 67 64 62
25 24 25 26 25 25 26 27 28 29 32 36 38 40 39 37 34 32 31 32 34 36 39 43 47 51 54 58 62 66 71 75 78 81 82 80 76 71 68 66 64 62 61 60
31 30 31 31 30 30 30 29 30 32 36 37 39 40 36 34 31 31 32 35 38 41 44 48 51 55 59 63 67 72 76 78 79 78 75 71 66 62 59 58 58 58 56 55
37 35 33 34 35 34 34 34 35 37 38 39 41 40 33 32 32 33 35 38 41 44 48 52 56 60 64 68 72 75 77 76 73 70 66 59 53 52 52 53 50 47 46 45
40 39 38 37 38 38 39 40 40 40 40 40 37 36 33 33 34 36 38 41 45 48 52 56 60 64 68 72 74 74 73 71 67 60 52 48 47 46 44 40 38 37 36 33
41 40 40 41 42 43 44 43 42 41 40 38 36 35 36 36 37 39 42 45 49 52 56 60 63 67 69 71 71 70 66 60 54 47 44 43 42 38 34 31 30 29 28 27
41 41 42 43 44 45 46 46 45 43 39 36 35 36 37 38 39 41 45 48 52 55 59 62 65 66 67 67 65 60 52 47 44 42 40 37 34 29 27 25 23 24 24 25
42 43 43 43 44 45 47 45 43 39 37 35 35 36 36 37 40 44 47 50 54 57 60 62 63 64 63 60 54 46 42 40 40 37 32 27 23 21 20 19 21 23 24 24
43 43 43 43 43 44 44 41 39 37 36 35 35 35 36 39 43 46 49 52 55 58 59 60 59 57 54 49 44 41 40 36 31 24 18 15 14 15 17 20 22 22 20 17
43 44 45 44 44 45 44 40 37 36 34 33 33 35 39 42 45 48 51 53 55 57 56 54 51 47 44 42 39 36 29 21 13 10 9 9 12 15 17 19 18 18 19 19
40 42 44 45 44 43 42 39 36 34 33 33 35 38 41 43 45 47 50 53 54 51 48 45 42 39 38 33 26 18 11 9 9 9 10 11 13 15 17 17 19 20 22 22
35 38 41 43 42 40 36 31 28 29 31 33 36 38 41 43 45 47 50 50 47 43 40 37 35 31 24 14 9 9 10 11 11 11 12 13 15 17 18 21 23 25 25 25
34 36 38 39 36 30 26 25 26 29 31 34 36 39 41 43 44 46 45 42 38 35 32 29 24 14 6 8 11 12 12 13 13 14 14 15 18 21 24 26 28 28 28 28
33 33 32 30 28 26 25 26 27 30 32 34 36 39 41 42 43 41 37 33 30 28 23 16 6 4 10 13 14 15 16 17 17 17 18 20 22 25 26 28 29 30 31 31
33 30 29 26 24 24 25 27 29 30 32 34 37 39 40 39 37 33 29 25 22 18 10 1 6 12 15 18 20 22 22 21 21 21 22 23 25 27 28 29 30 31 32 32
27 25 23 23 23 25 27 29 30 31 33 35 37 37 35 33 29 25 21 17 13 5 3 8 12 16 21 25 26 25 24 23 23 24 24 25 27 28 30 31 32 33 33 32
22 21 22 23 25 28 29 30 31 32 34 34 33 31 29 25 20 16 13 9 4 6 10 15 21 26 27 26 26 25 25 24 24 24 26 28 29 31 32 34 35 35 35 34
Wind_Direction
264 265 264 262 263 266 270 271 269 269 266 266 268 267 268 267 271 279 285 291 294 300 310 313 311 305 301 298 296 297 300 303 303 300 297 295 294 294 296 298 298 297 296 297
263 262 259 262 265 267 270 270 270 270 267 262 260 263 267 269 274 280 284 288 293 302 308 309 308 305 301 299 299 300 302 303 301 299 297 295 295 295 296 297 299 299 298 298
260 259 261 263 266 266 265 266 267 267 268 266 263 264 268 274 278 281 285 291 297 299 300 302 302 300 297 297 297 297 298 299 297 294 293 294 296 296 297 298 298 298 299 299
260 260 262 263 264 267 268 268 267 267 268 267 264 263 266 270 274 278 282 286 289 291 292 294 293 291 290 290 291 291 291 291 291 290 292 295 297 298 299 299 300 301 302 301
261 258 261 263 263 265 266 267 268 269 266 264 262 262 262 263 266 272 277 282 286 288 288 286 285 283 282 282 283 285 287 290 293 294 295 296 297 299 299 300 300 300 299 299
261 261 260 261 260 258 261 264 266 267 268 267 268 268 270 272 275 277 279 281 283 283 282 282 281 279 277 279 281 286 290 293 294 294 295 295 296 296 297 296 296 296 296 298
264 262 263 260 256 256 258 261 265 269 273 275 277 277 278 280 281 282 282 282 283 283 283 284 286 286 285 286 289 292 293 293 293 293 294 293 293 293 293 294 295 296 298 298
264 263 263 262 260 261 265 268 272 276 278 278 277 278 281 283 284 286 287 288 289 290 290 291 291 288 286 286 288 290 291 291 291 291 291 290 290 291 293 295 297 298 298 298
260 264 265 264 261 260 264 267 271 274 278 280 283 286 288 291 294 296 295 294 295 296 297 294 290 286 285 286 288 289 290 290 290 290 291 292 294 295 296 297 298 299 298 297
263 265 266 266 262 259 261 267 272 276 279 281 285 288 291 294 296 297 296 297 297 296 295 291 288 287 288 289 291 292 293 294 294 295 296 297 298 299 300 300 299 299 298 297
264 266 268 267 262 260 261 266 274 280 283 286 288 291 294 297 297 295 293 292 292 292 291 289 289 290 292 293 295 297 296 296 296 297 298 299 300 300 299 299 298 297 296 295
260 261 260 260 263 262 264 271 278 283 285 285 287 291 295 294 293 290 289 289 289 289 289 290 291 292 294 295 296 296 296 296 297 298 299 300 300 299 298 297 297 296 294 293
260 261 258 256 258 262 265 272 278 280 280 282 287 290 291 288 287 286 286 287 289 289 290 290 291 292 294 295 295 296 296 297 298 299 301 302 301 300 299 298 297 296 296 297
256 258 258 259 262 265 266 268 272 276 280 283 285 287 287 286 286 286 287 287 288 288 289 290 291 293 295 296 297 298 299 300 301 303 304 306 306 306 305 304 303 303 304 304
253 254 255 256 258 262 265 268 272 277 280 281 282 283 285 286 286 286 286 286 286 288 290 292 295 296 297 298 299 300 301 302 303 305 307 310 312 312 311 311 311 312 312 312
252 252 252 253 256 260 265 269 274 278 280 278 278 279 280 281 282 283 285 286 289 291 294 295 297 298 299 301 301 301 302 304 305 307 309 311 313 314 315 317 319 319 319 317
251 252 253 255 258 262 266 271 276 278 278 276 276 277 278 280 282 283 286 289 292 295 297 299 301 302 302 302 303 305 306 306 307 308 309 312 317 320 324 326 326 325 322 320
250 252 255 257 260 263 268 271 273 275 275 276 277 277 279 282 285 288 291 295 299 301 303 304 303 303 304 304 306 308 309 310 311 312 317 323 328 331 332 332 332 333 338 341
251 254 256 258 260 263 266 269 271 273 274 275 276 279 283 288 292 295 299 302 304 306 306 305 304 304 305 306 309 311 315 321 330 344 353 353 347 342 341 343 351 359 1 0
256 257 258 258 258 259 262 264 267 268 271 274 280 286 291 295 297 300 302 304 306 307 307 306 306 306 307 310 316 328 353 24 38 36 24 7 356 352 352 356 356 354 353 351
260 259 257 256 256 259 261 261 263 267 273 280 285 289 293 296 299 301 304 307 307 307 307 307 307 307 312 328 9 50 60 57 48 36 21 13 7 2 356 350 346 343 342 340
258 258 257 255 254 255 255 257 262 271 278 282 287 291 295 298 302 304 305 306 306 306 307 307 308 316 359 65 75 72 65 56 46 38 31 21 9 359 352 347 345 344 343 342
254 253 251 247 246 248 254 261 268 275 281 286 290 293 296 300 303 304 303 303 304 305 305 307 321 77 97 94 86 78 71 64 57 47 32 17 4 356 352 350 348 346 344 343
249 244 240 239 240 247 257 266 272 277 283 286 290 294 299 302 303 301 300 301 301 300 298 330 107 111 106 99 91 85 78 68 54 39 24 11 2 356 352 351 351 349 348 347
235 232 233 239 247 258 264 269 274 279 284 289 295 299 303 304 301 298 298 297 290 269 137 114 114 111 105 99 92 82 70 56 42 29 18 9 3 1 0 360 358 355 353 351
225 231 240 251 259 264 268 271 276 281 288 294 298 301 302 300 295 293 290 277 219 142 119 115 113 108 102 94 84 71 59 47 36 26 20 17 14 10 7 4 1 357 354 352
Height
5837 5839 5838 5836 5837 5837 5837 5838 5839 5840 5840 5840 5841 5842 5842 5841 5840 5839 5839 5839 5837 5836 5836 5835 5833 5832 5830 5828 5825 5822 5821 5821 5820 5818 5816 5813 5809 5807 5804 5800 5796 5792 5788 5784
5832 5833 5830 5829 5831 5832 5832 5832 5833 5834 5835 5835 5836 5837 5837 5836 5835 5833 5832 5832 5832 5831 5830 5829 5827 5826 5824 5821 5819 5817 5815 5814 5812 5810 5807 5804 5800 5797 5793 5789 5784 5779 5774 5770
5825 5826 5823 5824 5824 5826 5827 5827 5828 5828 5828 5829 5830 5831 5830 5829 5828 5827 5826 5826 5827 5826 5825 5823 5821 5820 5818 5815 5813 5811 5808 5806 5803 5799 5796 5793 5790 5785 5781 5776 5771 5767 5762 5757
5819 5819 5818 5819 5819 5820 5821 5821 5822 5823 5823 5823 5824 5825 5825 5823 5822 5822 5821 5822 5822 5821 5819 5817 5816 5814 5812 5810 5807 5804 5801 5797 5794 5790 5786 5782 5777 5772 5767 5762 5757 5752 5746 5740
5812 5813 5812 5813 5815 5814 5815 5815 5816 5817 5817 5817 5816 5817 5818 5817 5817 5817 5816 5815 5815 5813 5812 5811 5809 5808 5805 5803 5799 5796 5793 5789 5785 5780 5775 5770 5764 5759 5753 5748 5743 5737 5731 5724
5806 5806 5807 5808 5808 5809 5810 5810 5811 5811 5811 5811 5811 5811 5810 5810 5810 5810 5809 5809 5808 5806 5805 5803 5801 5799 5797 5794 5791 5788 5784 5780 5775 5770 5764 5758 5752 5747 5741 5735 5729 5722 5715 5708
5799 5800 5801 5802 5803 5804 5805 5806 5806 5806 5806 5806 5805 5804 5805 5804 5803 5803 5802 5801 5801 5799 5797 5794 5792 5790 5788 5785 5782 5778 5774 5769 5764 5758 5752 5746 5740 5733 5726 5719 5711 5704 5697 5690
5793 5795 5795 5796 5797 5798 5798 5800 5801 5801 5800 5799 5799 5798 5798 5797 5797 5796 5795 5793 5792 5790 5788 5786 5784 5782 5779 5776 5772 5768 5764 5758 5752 5746 5739 5731 5724 5717 5709 5700 5692 5684 5678 5671
5788 5788 5789 5790 5791 5793 5792 5793 5794 5794 5793 5792 5791 5791 5791 5790 5789 5788 5786 5784 5783 5781 5780 5778 5776 5773 5769 5765 5761 5757 5752 5746 5739 5730 5722 5714 5706 5698 5690 5681 5673 5665 5658 5652
5782 5783 5783 5784 5786 5786 5787 5787 5788 5787 5787 5785 5784 5782 5783 5783 5781 5779 5778 5776 5775 5773 5771 5769 5766 5763 5759 5755 5750 5744 5737 5729 5720 5712 5704 5695 5686 5678 5669 5661 5654 5648 5642 5636
5775 5777 5778 5778 5779 5781 5781 5782 5781 5781 5780 5779 5777 5777 5775 5774 5773 5771 5770 5769 5767 5765 5763 5760 5756 5752 5747 5741 5734 5727 5719 5711 5702 5694 5686 5677 5668 5660 5653 5646 5639 5633 5627 5621
5768 5771 5770 5771 5772 5773 5774 5775 5775 5775 5773 5771 5769 5771 5768 5767 5765 5764 5763 5761 5759 5757 5753 5749 5744 5739 5733 5726 5719 5711 5702 5694 5687 5678 5670 5661 5654 5646 5639 5632 5626 5619 5612 5606
5760 5762 5762 5763 5765 5766 5766 5767 5767 5766 5765 5763 5762 5763 5761 5759 5758 5757 5755 5753 5750 5747 5742 5737 5732 5726 5720 5712 5704 5696 5687 5679 5671 5662 5654 5647 5640 5633 5626 5620 5612 5605 5599 5593
5752 5752 5754 5756 5757 5758 5758 5758 5758 5759 5757 5755 5754 5754 5753 5751 5750 5749 5746 5743 5739 5735 5731 5725 5720 5714 5706 5698 5689 5680 5671 5662 5655 5648 5641 5634 5628 5621 5614 5607 5601 5595 5589 5584
5741 5743 5744 5746 5748 5749 5749 5749 5750 5750 5749 5749 5747 5745 5744 5743 5742 5739 5736 5732 5728 5723 5718 5712 5706 5699 5691 5682 5673 5664 5656 5648 5641 5635 5629 5623 5617 5611 5604 5599 5593 5588 5582 5577
5730 5732 5734 5736 5737 5738 5739 5740 5741 5742 5742 5741 5739 5738 5737 5735 5733 5729 5725 5721 5717 5712 5706 5699 5691 5683 5674 5666 5657 5649 5642 5636 5630 5625 5620 5614 5609 5604 5598 5593 5588 5583 5578 5572
5719 5722 5724 5726 5727 5728 5730 5732 5733 5733 5733 5732 5731 5731 5728 5726 5723 5719 5715 5711 5706 5700 5693 5684 5675 5666 5657 5649 5642 5635 5630 5625 5620 5615 5611 5607 5603 5599 5595 5590 5585 5579 5574 5569
5710 5712 5713 5716 5718 5720 5723 5723 5724 5724 5724 5723 5722 5721 5719 5717 5713 5708 5704 5699 5693 5686 5678 5669 5660 5652 5644 5637 5631 5625 5619 5614 5610 5607 5605 5603 5600 5596 5592 5587 5582 5576 5571 5565
5702 5704 5705 5707 5709 5710 5712 5714 5715 5715 5715 5714 5713 5711 5709 5706 5702 5696 5691 5685 5679 5671 5664 5656 5648 5642 5635 5628 5622 5616 5611 5608 5605 5604 5603 5601 5598 5595 5591 5586 5581 5576 5570 5565
5692 5695 5697 5699 5700 5702 5705 5706 5706 5707 5706 5705 5704 5702 5699 5695 5692 5687 5679 5673 5666 5659 5651 5645 5639 5633 5627 5622 5616 5612 5609 5607 5606 5605 5604 5601 5598 5595 5591 5586 5581 5576 5570 5565
5683 5685 5687 5689 5690 5692 5696 5697 5698 5700 5699 5697 5695 5692 5689 5685 5682 5676 5669 5662 5655 5649 5643 5638 5632 5628 5623 5618 5615 5613 5611 5610 5609 5607 5605 5603 5600 5596 5591 5586 5581 5575 5569 5564
5674 5676 5678 5680 5683 5687 5688 5689 5691 5691 5690 5687 5685 5682 5678 5674 5670 5665 5659 5653 5647 5642 5638 5633 5628 5624 5621 5618 5617 5615 5614 5613 5612 5610 5608 5605 5601 5597 5591 5585 5579 5573 5566 5560
5664 5668 5670 5673 5677 5678 5680 5681 5682 5681 5680 5678 5675 5672 5668 5665 5661 5655 5650 5646 5642 5638 5634 5630 5627 5624 5622 5620 5619 5618 5617 5616 5615 5613 5611 5607 5603 5597 5591 5584 5577 5570 5563 5556
5656 5659 5662 5665 5668 5670 5672 5673 5673 5672 5670 5668 5665 5663 5659 5656 5651 5647 5643 5640 5638 5635 5632 5629 5627 5626 5625 5624 5623 5622 5622 5621 5620 5617 5614 5609 5604 5597 5591 5584 5576 5568 5560 5553
5648 5652 5655 5658 5662 5664 5665 5665 5664 5663 5660 5658 5656 5653 5649 5646 5643 5641 5638 5637 5635 5634 5632 5631 5630 5630 5629 5629 5628 5628 5627 5626 5624 5621 5617 5612 5605 5598 5590 5582 5574 5566 5558 5550
5642 5647 5651 5654 5656 5656 5656 5655 5655 5653 5651 5649 5647 5644 5641 5639 5638 5637 5636 5635 5635 5635 5635 5634 5634 5634 5634 5634 5634 5633 5632 5631 5628 5625 5620 5613 5606 5599 5591 5583 5574 5565 5556 5548